Time,TemperatureF,DewpointF,PressureIn,WindDirection,WindDirectionDegrees,WindSpeedMPH,WindSpeedGustMPH,Humidity,HourlyPrecipIn,Conditions,Clouds,dailyrainin,SoftwareType,DateUTC
2015-07-29 00:04:00,59.3,36.8,29.99,SSW,199,0.0,3.0,43,0.00,,---,0.00,VWS V14.01,2015-07-29 07:04:00,
2015-07-29 00:14:00,59.0,36.6,29.96,SSW,198,1.0,2.0,43,0.00,,---,0.00,VWS V14.01,2015-07-29 07:14:00,
2015-07-29 00:24:00,58.8,36.4,29.96,SSW,200,2.0,2.0,43,0.00,,---,0.00,VWS V14.01,2015-07-29 07:24:00,
2015-07-29 00:34:00,58.3,36.5,29.98,SSW,200,0.0,2.0,44,0.00,,---,0.00,VWS V14.01,2015-07-29 07:34:00,
2015-07-29 00:44:00,57.9,36.1,29.98,SSW,200,0.0,2.0,44,0.00,,---,0.00,VWS V14.01,2015-07-29 07:44:00,
2015-07-29 01:04:00,57.1,36.0,29.98,SSW,200,0.0,1.0,45,0.00,,---,0.00,VWS V14.01,2015-07-29 08:04:00,
2015-07-29 01:14:00,56.8,35.7,29.97,SSW,200,0.0,1.0,45,0.00,,---,0.00,VWS V14.01,2015-07-29 08:14:00,
2015-07-29 01:24:00,56.5,35.4,29.97,SSW,200,0.0,1.0,45,0.00,,---,0.00,VWS V14.01,2015-07-29 08:24:00,
2015-07-29 01:34:00,56.2,35.2,29.98,SSW,201,0.0,2.0,45,0.00,,---,0.00,VWS V14.01,2015-07-29 08:34:00,
2015-07-29 01:44:00,55.8,35.3,29.98,SSW,198,1.0,3.0,46,0.00,,---,0.00,VWS V14.01,2015-07-29 08:44:00,
2015-07-29 01:54:00,55.5,35.1,29.97,SSW,199,0.0,1.0,46,0.00,,---,0.00,VWS V14.01,2015-07-29 08:54:00,
2015-07-29 02:04:00,55.2,34.8,29.97,SSW,199,0.0,1.0,46,0.00,,---,0.00,VWS V14.01,2015-07-29 09:04:00,
2015-07-29 02:14:00,54.9,34.5,29.98,SSW,200,0.0,1.0,46,0.00,,---,0.00,VWS V14.01,2015-07-29 09:14:00,
2015-07-29 02:24:00,54.6,34.2,29.98,SSW,198,0.0,2.0,46,0.00,,---,0.00,VWS V14.01,2015-07-29 09:24:00,
2015-07-29 02:34:00,54.3,34.5,29.99,SSW,199,0.0,1.0,47,0.00,,---,0.00,VWS V14.01,2015-07-29 09:34:00,
2015-07-29 02:44:00,54.0,34.2,29.98,SSW,200,0.0,1.0,47,0.00,,---,0.00,VWS V14.01,2015-07-29 09:44:00,
2015-07-29 02:54:00,53.8,33.5,29.99,SSW,199,0.0,3.0,46,0.00,,---,0.00,VWS V14.01,2015-07-29 09:54:00,
2015-07-29 03:04:00,53.6,33.3,29.98,SSW,199,1.0,2.0,46,0.00,,---,0.00,VWS V14.01,2015-07-29 10:04:00,
2015-07-29 03:14:00,53.4,33.2,29.99,SSW,200,0.0,2.0,46,0.00,,---,0.00,VWS V14.01,2015-07-29 10:14:00,
2015-07-29 03:24:00,53.2,33.5,29.99,SSW,200,2.0,3.0,47,0.00,,---,0.00,VWS V14.01,2015-07-29 10:24:00,
2015-07-29 03:34:00,53.1,34.0,29.99,SSW,200,0.0,3.0,48,0.00,,---,0.00,VWS V14.01,2015-07-29 10:34:00,
2015-07-29 03:44:00,53.0,34.4,29.99,SSW,202,2.0,2.0,49,0.00,,---,0.00,VWS V14.01,2015-07-29 10:44:00,
2015-07-29 03:54:00,52.9,34.3,30.00,SSW,202,0.0,2.0,49,0.00,,---,0.00,VWS V14.01,2015-07-29 10:54:00,
2015-07-29 04:04:00,52.8,34.2,30.00,SSW,204,0.0,1.0,49,0.00,,---,0.00,VWS V14.01,2015-07-29 11:04:00,
2015-07-29 04:24:00,52.6,34.5,30.01,SSW,203,0.0,3.0,50,0.00,,---,0.00,VWS V14.01,2015-07-29 11:24:00,
2015-07-29 04:34:00,52.4,34.8,30.00,SSW,206,0.0,3.0,51,0.00,,---,0.00,VWS V14.01,2015-07-29 11:34:00,
2015-07-29 04:44:00,52.3,34.7,30.00,SSW,198,0.0,1.0,51,0.00,,---,0.00,VWS V14.01,2015-07-29 11:44:00,
2015-07-29 04:54:00,52.1,34.5,30.01,SSW,199,0.0,2.0,51,0.00,,---,0.00,VWS V14.01,2015-07-29 11:54:00,
2015-07-29 05:04:00,51.9,34.4,30.01,SSW,200,0.0,1.0,51,0.00,,---,0.00,VWS V14.01,2015-07-29 12:04:00,
2015-07-29 05:14:00,51.6,34.1,30.02,SSW,200,0.0,3.0,51,0.00,,---,0.00,VWS V14.01,2015-07-29 12:14:00,